DW7955 Weather Reports


Display with metric or nautical units.
time (UTC)temp
F
wind
direction
speed
MPH
gust
MPH
rain 1hr
in
rain 24hr
in
rain mn
in
humidity
%
barometer
mb
20260904080011 65 343 2.0 4.0 0.00 0.00 0.00 46 1001.2
20260904074511 65 240 0.0 0.0 0.00 0.00 0.00 45 1001.3
20260904073009 65 234 1.0 3.0 0.00 0.00 0.00 44 1001.3
20260904071517 66 19 0.0 0.0 0.00 0.00 0.00 42 1001.1
20260904070002 66 19 0.0 0.0 0.00 0.00 0.00 40 1001.0
20260904064558 67 19 1.0 3.0 0.00 0.00 0.00 38 1000.8
20260904063108 70 33 1.0 3.0 0.00 0.00 0.00 35 1000.7
20260904061600 70 1 3.0 5.0 0.00 0.00 0.00 36 1000.5
20260904060109 71 244 0.0 1.0 0.00 0.00 0.00 33 1000.4
20260904054548 73 244 1.0 6.0 0.00 0.00 0.00 31 1000.3
20260904053048 77 240 3.0 5.0 0.00 0.00 0.00 27 1000.1
20260904051548 77 84 1.0 3.0 0.00 0.00 0.00 28 1000.2
20260904050046 78 73 1.0 7.0 0.00 0.00 0.00 27 1000.4
20260904044551 79 47 3.0 6.0 0.00 0.00 0.00 25 1000.4
20260904043046 80 80 4.0 8.0 0.00 0.00 0.00 25 1000.5
20260904041545 79 52 1.0 9.0 0.00 0.00 0.00 28 1000.6
20260904040044 77 36 5.0 6.0 0.00 0.00 0.00 30 1000.7
20260904034558 76 15 2.0 3.0 0.00 0.00 0.00 29 1000.6
20260904033043 78 14 0.0 2.0 0.00 0.00 0.00 27 1000.4
20260904031543 80 34 0.0 1.0 0.00 0.00 0.00 25 1000.3
20260904030043 82 19 0.0 2.0 0.00 0.00 0.00 22 1000.2
20260904024542 84 62 0.0 3.0 0.00 0.00 0.00 21 1000.2
20260904023042 83 92 2.0 4.0 0.00 0.00 0.00 21 1000.0
20260904021547 83 30 0.0 3.0 0.00 0.00 0.00 22 999.7
20260904020042 86 68 0.0 3.0 0.00 0.00 0.00 19 999.7
20260904014545 87 126 1.0 4.0 0.00 0.00 0.00 18 999.5
20260904013040 89 105 0.0 3.0 0.00 0.00 0.00 18 999.4
20260904011543 90 78 2.0 3.0 0.00 0.00 0.00 16 999.2
20260904010050 91 116 1.0 4.0 0.00 0.00 0.00 15 999.1
20260904004555 92 10 0.0 5.0 0.00 0.00 0.00 15 999.1
20260904003037 92 43 2.0 7.0 0.00 0.00 0.00 15 999.2
20260904001537 93 57 5.0 8.0 0.00 0.00 0.00 15 999.3
20260904000038 94 113 3.0 7.0 0.00 0.00 0.00 15 999.2
20260903234542 93 230 1.0 7.0 0.00 0.00 0.00 16 999.4
20260903233035 93 74 3.0 7.0 0.00 0.00 0.00 15 999.3
20260903231534 95 164 0.0 3.0 0.00 0.00 0.00 15 999.4
20260903230032 94 167 2.0 6.0 0.00 0.00 0.00 16 999.6
20260903224532 94 228 3.0 7.0 0.00 0.00 0.00 16 999.7
20260903223036 93 309 1.0 6.0 0.00 0.00 0.00 17 999.7
20260903221526 94 311 4.0 7.0 0.00 0.00 0.00 16 999.9
20260903220035 93 11 3.0 8.0 0.00 0.00 0.00 16 1000.0
20260903214522 93 214 4.0 6.0 0.00 0.00 0.00 17 1000.2
20260903213032 93 99 3.0 7.0 0.00 0.00 0.00 18 1000.4
20260903211547 91 72 3.0 12.0 0.00 0.00 0.00 18 1000.6
20260903210016 92 253 1.0 8.0 0.00 0.00 0.00 18 1000.7
20260903204514 91 144 2.0 9.0 0.00 0.00 0.00 18 1000.9
20260903203012 91 261 1.0 6.0 0.00 0.00 0.00 18 1001.1
20260903201510 91 284 3.0 7.0 0.00 0.00 0.00 18 1001.3
20260903200009 90 144 5.0 9.0 0.00 0.00 0.00 18 1001.6
20260903194506 89 223 2.0 7.0 0.00 0.00 0.00 19 1001.6
20260903193004 88 280 2.0 8.0 0.00 0.00 0.00 19 1002.0
20260903191503 88 128 1.0 9.0 0.00 0.00 0.00 21 1002.2
20260903190101 88 161 4.0 11.0 0.00 0.00 0.00 20 1002.3
20260903184603 88 38 1.0 8.0 0.00 0.00 0.00 20 1002.5
20260903183056 87 345 1.0 5.0 0.00 0.00 0.00 20 1002.7
20260903181554 87 209 3.0 9.0 0.00 0.00 0.00 22 1002.9
20260903180105 87 182 5.0 8.0 0.00 0.00 0.00 21 1003.1
20260903174609 87 1 3.0 5.0 0.00 0.00 0.00 22 1003.2
20260903173055 86 18 2.0 5.0 0.00 0.00 0.00 23 1003.4
20260903171551 85 284 4.0 7.0 0.00 0.00 0.00 23 1003.5
20260903170106 86 216 3.0 6.0 0.00 0.00 0.00 23 1003.4
20260903164552 84 313 0.0 4.0 0.00 0.00 0.00 24 1003.5
20260903163045 83 149 4.0 9.0 0.00 0.00 0.00 25 1003.6
20260903161544 83 138 1.0 7.0 0.00 0.00 0.00 26 1003.6
20260903160046 84 250 1.0 5.0 0.00 0.00 0.00 25 1003.7
20260903154540 81 53 3.0 9.0 0.00 0.00 0.00 26 1003.9
20260903153044 82 153 1.0 4.0 0.00 0.00 0.00 28 1003.9
20260903151544 80 281 0.0 3.0 0.00 0.00 0.00 28 1004.1
20260903150030 78 351 0.0 4.0 0.00 0.00 0.00 30 1004.2
20260903144628 77 327 1.0 3.0 0.00 0.00 0.00 31 1004.4
20260903143025 75 22 2.0 7.0 0.00 0.00 0.00 34 1004.2
20260903141523 75 87 4.0 8.0 0.00 0.00 0.00 35 1004.4
20260903140022 73 292 0.0 9.0 0.00 0.00 0.00 36 1004.3
20260903134520 70 88 2.0 7.0 0.00 0.00 0.00 38 1004.4
20260903133018 65 82 3.0 5.0 0.00 0.00 0.00 49 1004.2
20260903131517 64 244 0.0 1.0 0.00 0.00 0.00 51 1004.0
20260903130014 64 167 0.0 0.0 0.00 0.00 0.00 49 1004.1
20260903124512 63 49 0.0 4.0 0.00 0.00 0.00 52 1004.0
20260903123011 63 103 2.0 6.0 0.00 0.00 0.00 53 1003.9
20260903121507 64 351 0.0 1.0 0.00 0.00 0.00 43 1003.5
20260903120004 65 351 0.0 0.0 0.00 0.00 0.00 41 1003.3
20260903114502 66 351 0.0 0.0 0.00 0.00 0.00 39 1003.3
20260903113001 66 351 0.0 0.0 0.00 0.00 0.00 41 1003.2
20260903111625 67 351 0.0 0.0 0.00 0.00 0.00 39 1003.1
20260903110110 67 351 1.0 3.0 0.00 0.00 0.00 41 1003.1
20260903104622 69 351 0.0 2.0 0.00 0.00 0.00 37 1003.1
20260903103051 70 7 3.0 4.0 0.00 0.00 0.00 36 1003.2
20260903101551 72 351 1.0 6.0 0.00 0.00 0.00 33 1003.2
20260903100050 72 356 1.0 5.0 0.00 0.00 0.00 34 1003.2
20260903094558 72 82 3.0 5.0 0.00 0.00 0.00 33 1003.3
20260903093049 73 215 1.0 6.0 0.00 0.00 0.00 33 1003.1
20260903091547 71 223 1.0 6.0 0.00 0.00 0.00 35 1003.0
20260903090050 70 234 4.0 8.0 0.00 0.00 0.00 36 1003.1
20260903084544 71 301 0.0 3.0 0.00 0.00 0.00 37 1003.1
20260903083044 71 123 0.0 4.0 0.00 0.00 0.00 39 1003.2
20260903081543 71 161 1.0 5.0 0.00 0.00 0.00 37 1003.0